Regional Weather Roundup
Issued by NWS New Orleans/Baton Rouge, LA

Home | Current Version | Previous Version | Text Only | Print | Product List | Glossary On
Versions: 1 2 3 4 5 6 7 8 9 10 11 12 13 14 15 16 17 18 19 20 21 22 23 24 25 26 27 28 29 30 31 32 33 34 35 36 37 38 39 40 41 42 43 44 45 46 47 48 49
000
ASUS44 KLIX 280415
RWRLIX
NEW ORLEANS REGIONAL WEATHER ROUNDUP
NATIONAL WEATHER SERVICE NEW ORLEANS LA
1100 PM CDT THU APR 27 2017

NOTE: "FAIR" INDICATES FEW OR NO CLOUDS BELOW 12,000 FEET WITH NO
      SIGNIFICANT WEATHER AND/OR OBSTRUCTIONS TO VISIBILITY.
      SKY/WX - SKY CONDITION AND SIGNIFICANT WEATHER.
      TMP - AIR TEMPERATURE.     DP    - DEWPOINT TEMPERATURE.
      RH  - RELATIVE HUMIDITY.   PRES  - PRESSURE.
      HI  - HEAT INDEX.          WCI   - WIND CHILL INDEX.

*  THESE STATIONS ARE NOT NWS OR FAA STATIONS AND ARE NOT UNDER
   NWS QUALITY CONTROL.

LAZ038-040-048-061>063-065>067-069-280500-
SOUTHEAST LOUISIANA

CITY           SKY/WX    TMP DP  RH WIND       PRES   REMARKS
N.O. INTL ARPT PTCLDY    74  69  85 SE10      29.81R
N.O. LAKEFRONT CLEAR     75  72  90 SE9       29.81S
N.O. DOWNTOWN*   N/A     76  71  85 CALM        N/A
RESERVE*       NOT AVBL
SLIDELL        CLEAR     69  66  90 CALM      29.81S
BATON ROUGE    CLEAR     72  63  73 SE7       29.77S
BOOTHVILLE     CLOUDY    76  75  97 S9        29.83F FOG
BELLE CHASSE   MOCLDY    73  72  96 SE12      29.81S
BOGALUSA*      NOT AVBL
GALLIANO*      CLOUDY    77  72  83 SE9       29.81S
NEW ROADS*       N/A     70  61  74 SE6       29.76F
GONZALES*        N/A     73  66  80 SE6       29.77F
HAMMOND*       CLEAR     70  63  78 SE7       29.79F
HOUMA*         CLOUDY    75  71  87 SE9       29.79F
PORT FOURCHON* MOCLDY    77  75  94 SE10      29.80F FOG

$$

MSZ070-080>082-280500-
SOUTHERN MISSISSIPPI

CITY           SKY/WX    TMP DP  RH WIND       PRES   REMARKS
MCCOMB         PTCLDY    67  59  75 E7        29.80S
GULFPORT       CLEAR     76  73  91 S8        29.82S
BILOXI         CLEAR     76  73  91 S10       29.82F
PASCAGOULA     CLEAR     72  69  90 S3        29.84S FOG

$$

COASTAL OBSERVATIONS
LAKE AND NEARSHORE STATIONS

STATION/POSITION TIME  TEMP    WIND        PRES    WAVE
                       AIR SEA DIR/SP/G            HT/PER
                 (UTC) (F)     (DEG/KT/KT) (MB)    (FT/S)
PASCAGOULA       0348   76     150/  9/ 14 1010.0
WAVELAND YACHT   0348   76 76  170/ 12/ 15 1009.4
GRAND ISLE       0348   76 76  150/  6/ 10 1009.3
SOUTHWEST PASS   0348          140/  6/ 10   N/A
NEW CANAL        0348   75 77  130/  3/  7 1009.3
SHELL BEACH      0348   75 79  140/  6/  8 1009.7

OFFSHORE STATIONS

STATION/POSITION TIME  TEMP    WIND        PRES    WAVE
                       AIR SEA DIR/SP/G            HT/PER
                 (UTC) (F)     (DEG/KT/KT) (MB)    (FT/S)
64 S DAUPHIN ISL 0350   77 76  150/ 12/ 14 1011.0    4/ 7

$$




USA.gov is the U.S. government's official web portal to all federal, state and local government web resources and services.